Year,Month,Day,Hour,Minute,Value (Times are PST for temperature in C)
2012,08,03,00,00,16.90
2012,08,03,00,01,16.90
2012,08,03,00,02,16.90
2012,08,03,00,03,16.90
2012,08,03,00,04,16.90
2012,08,03,00,05,16.90
2012,08,03,00,06,17.00
2012,08,03,00,07,17.00
2012,08,03,00,08,17.10
2012,08,03,00,09,17.10
2012,08,03,00,10,17.20
2012,08,03,00,11,17.30
2012,08,03,00,12,17.50
2012,08,03,00,13,17.60
2012,08,03,00,14,17.70
2012,08,03,00,15,17.90
2012,08,03,00,16,18.00
2012,08,03,00,17,18.20
2012,08,03,00,18,18.30
2012,08,03,00,19,18.40
2012,08,03,00,20,18.50
2012,08,03,00,21,18.50
2012,08,03,00,22,18.60
2012,08,03,00,23,18.60
2012,08,03,00,24,18.70
2012,08,03,00,25,18.70
2012,08,03,00,26,18.70
2012,08,03,00,27,18.80
2012,08,03,00,28,18.80
2012,08,03,00,29,18.80
2012,08,03,00,30,18.80
2012,08,03,00,31,18.80
2012,08,03,00,32,18.80
2012,08,03,00,33,18.90
2012,08,03,00,34,18.90
2012,08,03,00,35,18.90
2012,08,03,00,36,18.90
2012,08,03,00,37,18.90
2012,08,03,00,38,18.80
2012,08,03,00,39,18.80
2012,08,03,00,40,18.80
2012,08,03,00,41,18.80
2012,08,03,00,42,18.80
2012,08,03,00,43,18.80
2012,08,03,00,44,18.80
2012,08,03,00,45,18.80
2012,08,03,00,46,18.80
2012,08,03,00,47,18.80
2012,08,03,00,48,18.80
2012,08,03,00,49,18.70
2012,08,03,00,50,18.70
2012,08,03,00,51,18.70
2012,08,03,00,52,18.70
2012,08,03,00,53,18.70
2012,08,03,00,54,18.70
2012,08,03,00,55,18.70
2012,08,03,00,56,18.70
2012,08,03,00,57,18.70
2012,08,03,00,58,18.70
2012,08,03,00,59,18.70
2012,08,03,01,00,18.70
2012,08,03,01,01,18.60
2012,08,03,01,02,18.60
2012,08,03,01,03,18.60
2012,08,03,01,04,18.60
2012,08,03,01,05,18.60
2012,08,03,01,06,18.60
2012,08,03,01,07,18.60
2012,08,03,01,08,18.60
2012,08,03,01,09,18.60
2012,08,03,01,10,18.50
2012,08,03,01,11,18.50
2012,08,03,01,12,18.50
2012,08,03,01,13,18.50
2012,08,03,01,14,18.50
2012,08,03,01,15,18.50
2012,08,03,01,16,18.40
2012,08,03,01,17,18.40
2012,08,03,01,18,18.40
2012,08,03,01,19,18.40
2012,08,03,01,20,18.40
2012,08,03,01,21,18.40
2012,08,03,01,22,18.40
2012,08,03,01,23,18.30
2012,08,03,01,24,18.30
2012,08,03,01,25,18.30
2012,08,03,01,26,18.30
2012,08,03,01,27,18.30
2012,08,03,01,28,18.30
2012,08,03,01,29,18.30
2012,08,03,01,30,18.30
2012,08,03,01,31,18.30
2012,08,03,01,32,18.30
2012,08,03,01,33,18.20
2012,08,03,01,34,18.20
2012,08,03,01,35,18.20
2012,08,03,01,36,18.20
2012,08,03,01,37,18.20
2012,08,03,01,38,18.20
2012,08,03,01,39,18.20
2012,08,03,01,40,18.20
2012,08,03,01,41,18.20
2012,08,03,01,42,18.20
2012,08,03,01,43,18.20
2012,08,03,01,44,18.20
2012,08,03,01,45,18.20
2012,08,03,01,46,18.20
2012,08,03,01,47,18.10
2012,08,03,01,48,18.10
2012,08,03,01,49,18.10
2012,08,03,01,50,18.10
2012,08,03,01,51,18.10
2012,08,03,01,52,18.10
2012,08,03,01,53,18.10
2012,08,03,01,54,18.10
2012,08,03,01,55,18.10
2012,08,03,01,56,18.10
2012,08,03,01,57,18.10
2012,08,03,01,58,18.10
2012,08,03,01,59,18.00
2012,08,03,02,00,18.00
2012,08,03,02,01,18.00
2012,08,03,02,02,18.00
2012,08,03,02,03,18.00
2012,08,03,02,04,18.00
2012,08,03,02,05,17.90
2012,08,03,02,06,17.90
2012,08,03,02,07,17.90
2012,08,03,02,08,17.90
2012,08,03,02,09,17.90
2012,08,03,02,10,17.90
2012,08,03,02,11,17.90
2012,08,03,02,12,17.90
2012,08,03,02,13,17.90
2012,08,03,02,14,17.80
2012,08,03,02,15,17.80
2012,08,03,02,16,17.80
2012,08,03,02,17,17.80
2012,08,03,02,18,17.80
2012,08,03,02,19,17.80
2012,08,03,02,20,17.80
2012,08,03,02,21,17.80
2012,08,03,02,22,17.80
2012,08,03,02,23,17.70
2012,08,03,02,24,17.70
2012,08,03,02,25,17.70
2012,08,03,02,26,17.70
2012,08,03,02,27,17.70
2012,08,03,02,28,17.70
2012,08,03,02,29,17.70
2012,08,03,02,30,17.70
2012,08,03,02,31,17.70
2012,08,03,02,32,17.70
2012,08,03,02,33,17.70
2012,08,03,02,34,17.60
2012,08,03,02,35,17.60
2012,08,03,02,36,17.60
2012,08,03,02,37,17.60
2012,08,03,02,38,17.60
2012,08,03,02,39,17.60
2012,08,03,02,40,17.60
2012,08,03,02,41,17.60
2012,08,03,02,42,17.60
2012,08,03,02,43,17.50
2012,08,03,02,44,17.50
2012,08,03,02,45,17.50
2012,08,03,02,46,17.40
2012,08,03,02,47,17.40
2012,08,03,02,48,17.40
2012,08,03,02,49,17.40
2012,08,03,02,50,17.40
2012,08,03,02,51,17.40
2012,08,03,02,52,17.40
2012,08,03,02,53,17.30
2012,08,03,02,54,17.30
2012,08,03,02,55,17.30
2012,08,03,02,56,17.30
2012,08,03,02,57,17.30
2012,08,03,02,58,17.30
2012,08,03,02,59,17.30
2012,08,03,03,00,17.30
2012,08,03,03,01,17.30
2012,08,03,03,02,17.20
2012,08,03,03,03,17.20
2012,08,03,03,04,17.20
2012,08,03,03,05,17.20
2012,08,03,03,06,17.20
2012,08,03,03,07,17.20
2012,08,03,03,08,17.20
2012,08,03,03,09,17.20
2012,08,03,03,10,17.20
2012,08,03,03,11,17.20
2012,08,03,03,12,17.20
2012,08,03,03,13,17.10
2012,08,03,03,14,17.10
2012,08,03,03,15,17.10
2012,08,03,03,16,17.10
2012,08,03,03,17,17.10
2012,08,03,03,18,17.10
2012,08,03,03,19,17.10
2012,08,03,03,20,17.10
2012,08,03,03,21,17.10
2012,08,03,03,22,17.10
2012,08,03,03,23,17.10
2012,08,03,03,24,17.10
2012,08,03,03,25,17.10
2012,08,03,03,26,17.10
2012,08,03,03,27,17.10
2012,08,03,03,28,17.10
2012,08,03,03,29,17.10
2012,08,03,03,30,17.10
2012,08,03,03,31,17.10
2012,08,03,03,32,17.00
2012,08,03,03,33,17.00
2012,08,03,03,34,17.00
2012,08,03,03,35,17.00
2012,08,03,03,36,17.00
2012,08,03,03,37,17.00
2012,08,03,03,38,17.00
2012,08,03,03,39,17.00
2012,08,03,03,40,17.00
2012,08,03,03,41,17.00
2012,08,03,03,42,17.00
2012,08,03,03,43,17.00
2012,08,03,03,44,17.00
2012,08,03,03,45,17.00
2012,08,03,03,46,17.00
2012,08,03,03,47,17.00
2012,08,03,03,48,16.90
2012,08,03,03,49,16.90
2012,08,03,03,50,16.90
2012,08,03,03,51,16.90
2012,08,03,03,52,16.90
2012,08,03,03,53,16.90
2012,08,03,03,54,16.80
2012,08,03,03,55,16.80
2012,08,03,03,56,16.80
2012,08,03,03,57,16.80
2012,08,03,03,58,16.70
2012,08,03,03,59,16.70
2012,08,03,04,00,16.70
2012,08,03,04,01,16.70
2012,08,03,04,02,16.70
2012,08,03,04,03,16.70
2012,08,03,04,04,16.70
2012,08,03,04,05,16.70
2012,08,03,04,06,16.70
2012,08,03,04,07,16.70
2012,08,03,04,08,16.80
2012,08,03,04,09,16.80
2012,08,03,04,10,16.80
2012,08,03,04,11,16.80
2012,08,03,04,12,16.80
2012,08,03,04,13,16.80
2012,08,03,04,14,16.80
2012,08,03,04,15,16.80
2012,08,03,04,16,16.80
2012,08,03,04,17,16.80
2012,08,03,04,18,16.80
2012,08,03,04,19,16.80
2012,08,03,04,20,16.80
2012,08,03,04,21,16.80
2012,08,03,04,22,16.90
2012,08,03,04,23,16.90
2012,08,03,04,24,16.90
2012,08,03,04,25,16.90
2012,08,03,04,26,16.90
2012,08,03,04,27,16.90
2012,08,03,04,28,16.90
2012,08,03,04,29,16.90
2012,08,03,04,30,16.90
2012,08,03,04,31,16.90
2012,08,03,04,32,16.90
2012,08,03,04,33,16.90
2012,08,03,04,34,16.90
2012,08,03,04,35,16.90
2012,08,03,04,36,16.90
2012,08,03,04,37,16.90
2012,08,03,04,38,16.90
2012,08,03,04,39,16.90
2012,08,03,04,40,16.90
2012,08,03,04,41,16.90
2012,08,03,04,42,16.90
2012,08,03,04,43,16.90
2012,08,03,04,44,16.90
2012,08,03,04,45,16.90
2012,08,03,04,46,17.00
2012,08,03,04,47,17.00
2012,08,03,04,48,16.90
2012,08,03,04,49,16.90
2012,08,03,04,50,16.90
2012,08,03,04,51,16.90
2012,08,03,04,52,16.90
2012,08,03,04,53,16.90
2012,08,03,04,54,16.90
2012,08,03,04,55,16.90
2012,08,03,04,56,16.90
2012,08,03,04,57,16.90
2012,08,03,04,58,16.90
2012,08,03,04,59,16.90
2012,08,03,05,00,16.90
2012,08,03,05,01,16.90
2012,08,03,05,02,16.90
2012,08,03,05,03,16.90
2012,08,03,05,04,16.90
2012,08,03,05,05,16.90
2012,08,03,05,06,16.90
2012,08,03,05,07,16.90
2012,08,03,05,08,16.90
2012,08,03,05,09,16.90
2012,08,03,05,10,16.90
2012,08,03,05,11,16.90
2012,08,03,05,12,16.90
2012,08,03,05,13,16.90
2012,08,03,05,14,16.90
2012,08,03,05,15,16.90
2012,08,03,05,16,16.90
2012,08,03,05,17,16.90
2012,08,03,05,18,16.90
2012,08,03,05,19,16.90
2012,08,03,05,20,16.90
2012,08,03,05,21,16.90
2012,08,03,05,22,16.80
2012,08,03,05,23,16.80
2012,08,03,05,24,16.80
2012,08,03,05,25,16.80
2012,08,03,05,26,16.80
2012,08,03,05,27,16.80
2012,08,03,05,28,16.80
2012,08,03,05,29,16.80
2012,08,03,05,30,16.80
2012,08,03,05,31,16.80
2012,08,03,05,32,16.80
2012,08,03,05,33,16.80
2012,08,03,05,34,16.80
2012,08,03,05,35,16.80
2012,08,03,05,36,16.80
2012,08,03,05,37,16.80
2012,08,03,05,38,16.80
2012,08,03,05,39,16.80
2012,08,03,05,40,16.80
2012,08,03,05,41,16.80
2012,08,03,05,42,16.80
2012,08,03,05,43,16.80
2012,08,03,05,44,16.80
2012,08,03,05,45,16.80
2012,08,03,05,46,16.80
2012,08,03,05,47,16.80
2012,08,03,05,48,16.80
2012,08,03,05,49,16.80
2012,08,03,05,50,16.80
2012,08,03,05,51,16.80
2012,08,03,05,52,16.80
2012,08,03,05,53,16.80
2012,08,03,05,54,16.70
2012,08,03,05,55,16.70
2012,08,03,05,56,16.70
2012,08,03,05,57,16.70
2012,08,03,05,58,16.70
2012,08,03,05,59,16.70
2012,08,03,06,00,16.70
2012,08,03,06,01,16.70
2012,08,03,06,02,16.70
2012,08,03,06,03,16.70
2012,08,03,06,04,16.70
2012,08,03,06,05,16.70
2012,08,03,06,06,16.70
2012,08,03,06,07,16.70
2012,08,03,06,08,16.70
2012,08,03,06,09,16.70
2012,08,03,06,10,16.70
2012,08,03,06,11,16.70
2012,08,03,06,12,16.70
2012,08,03,06,13,16.70
2012,08,03,06,14,16.70
2012,08,03,06,15,16.70
2012,08,03,06,16,16.70
2012,08,03,06,17,16.70
2012,08,03,06,18,16.70
2012,08,03,06,19,16.70
2012,08,03,06,20,16.70
2012,08,03,06,21,16.70
2012,08,03,06,22,16.70
2012,08,03,06,23,16.70
2012,08,03,06,24,16.70
2012,08,03,06,25,16.70
2012,08,03,06,26,16.70
2012,08,03,06,27,16.70
2012,08,03,06,28,16.70
2012,08,03,06,29,16.70
2012,08,03,06,30,16.70
2012,08,03,06,31,16.70
2012,08,03,06,32,16.70
2012,08,03,06,33,16.70
2012,08,03,06,34,16.70
2012,08,03,06,35,16.70
2012,08,03,06,36,16.70
2012,08,03,06,37,16.70
2012,08,03,06,38,16.70
2012,08,03,06,39,16.70
2012,08,03,06,40,16.70
2012,08,03,06,41,16.70
2012,08,03,06,42,16.70
2012,08,03,06,43,16.70
2012,08,03,06,44,16.70
2012,08,03,06,45,16.70
2012,08,03,06,46,16.70
2012,08,03,06,47,16.70
2012,08,03,06,48,16.70
2012,08,03,06,49,16.70
2012,08,03,06,50,16.70
2012,08,03,06,51,16.80
2012,08,03,06,52,16.80
2012,08,03,06,53,16.80
2012,08,03,06,54,16.80
2012,08,03,06,55,16.80
2012,08,03,06,56,16.80
2012,08,03,06,57,16.90
2012,08,03,06,58,16.90
2012,08,03,06,59,16.90
2012,08,03,07,00,17.00
2012,08,03,07,01,17.00
2012,08,03,07,02,17.00
2012,08,03,07,03,17.10
2012,08,03,07,04,17.10
2012,08,03,07,05,17.10
2012,08,03,07,06,17.10
2012,08,03,07,07,17.10
2012,08,03,07,08,17.10
2012,08,03,07,09,17.10
2012,08,03,07,10,17.10
2012,08,03,07,11,17.10
2012,08,03,07,12,17.10
2012,08,03,07,13,17.20
2012,08,03,07,14,17.20
2012,08,03,07,15,17.20
2012,08,03,07,16,17.20
2012,08,03,07,17,17.20
2012,08,03,07,18,17.20
2012,08,03,07,19,17.30
2012,08,03,07,20,17.30
2012,08,03,07,21,17.30
2012,08,03,07,22,17.30
2012,08,03,07,23,17.30
2012,08,03,07,24,17.30
2012,08,03,07,25,17.30
2012,08,03,07,26,17.30
2012,08,03,07,27,17.40
2012,08,03,07,28,17.40
2012,08,03,07,29,17.40
2012,08,03,07,30,17.40
2012,08,03,07,31,17.40
2012,08,03,07,32,17.40
2012,08,03,07,33,17.50
2012,08,03,07,34,17.50
2012,08,03,07,35,17.50
2012,08,03,07,36,17.50
2012,08,03,07,37,17.50
2012,08,03,07,38,17.50
2012,08,03,07,39,17.50
2012,08,03,07,40,17.50
2012,08,03,07,41,17.60
2012,08,03,07,42,17.60
2012,08,03,07,43,17.60
2012,08,03,07,44,17.60
2012,08,03,07,45,17.60
2012,08,03,07,46,17.60
2012,08,03,07,47,17.60
2012,08,03,07,48,17.60
2012,08,03,07,49,17.60
2012,08,03,07,50,17.60
2012,08,03,07,51,17.60
2012,08,03,07,52,17.60
2012,08,03,07,53,17.60
2012,08,03,07,54,17.60
2012,08,03,07,55,17.60
2012,08,03,07,56,17.60
2012,08,03,07,57,17.70
2012,08,03,07,58,17.70
2012,08,03,07,59,17.70
2012,08,03,08,00,17.70
2012,08,03,08,01,17.70
2012,08,03,08,02,17.70
2012,08,03,08,03,17.60
2012,08,03,08,04,17.60
2012,08,03,08,05,17.70
2012,08,03,08,06,17.70
2012,08,03,08,07,17.70
2012,08,03,08,08,17.70
2012,08,03,08,09,17.70
2012,08,03,08,10,17.70
2012,08,03,08,11,17.70
2012,08,03,08,12,17.70
2012,08,03,08,13,17.70
2012,08,03,08,14,17.70
2012,08,03,08,15,17.70
2012,08,03,08,16,17.70
2012,08,03,08,17,17.60
2012,08,03,08,18,17.70
2012,08,03,08,19,17.70
2012,08,03,08,20,17.70
2012,08,03,08,21,17.70
2012,08,03,08,22,17.80
2012,08,03,08,23,17.80
2012,08,03,08,24,17.80
2012,08,03,08,25,17.80
2012,08,03,08,26,17.80
2012,08,03,08,27,17.80
2012,08,03,08,28,17.80
2012,08,03,08,29,17.80
2012,08,03,08,30,17.90
2012,08,03,08,31,17.90
2012,08,03,08,32,17.90
2012,08,03,08,33,17.90
2012,08,03,08,34,17.90
2012,08,03,08,35,17.90
2012,08,03,08,36,17.90
2012,08,03,08,37,17.90
2012,08,03,08,38,17.90
2012,08,03,08,39,17.90
2012,08,03,08,40,18.00
2012,08,03,08,41,18.00
2012,08,03,08,42,18.00
2012,08,03,08,43,18.10
2012,08,03,08,44,18.10
2012,08,03,08,45,18.10
2012,08,03,08,46,18.10
2012,08,03,08,47,18.10
2012,08,03,08,48,18.10
2012,08,03,08,49,18.10
2012,08,03,08,50,18.10
2012,08,03,08,51,18.10
2012,08,03,08,52,18.20
2012,08,03,08,53,18.20
2012,08,03,08,54,18.30
2012,08,03,08,55,18.30
2012,08,03,08,56,18.30
2012,08,03,08,57,18.30
2012,08,03,08,58,18.30
2012,08,03,08,59,18.30
2012,08,03,09,00,18.30
2012,08,03,09,01,18.30
2012,08,03,09,02,18.40
2012,08,03,09,03,18.40
2012,08,03,09,04,18.50
2012,08,03,09,05,18.50
2012,08,03,09,06,18.50
2012,08,03,09,07,18.60
2012,08,03,09,08,18.60
2012,08,03,09,09,18.60
2012,08,03,09,10,18.70
2012,08,03,09,11,18.70
2012,08,03,09,12,18.70
2012,08,03,09,13,18.80
2012,08,03,09,14,18.80
2012,08,03,09,15,18.80
2012,08,03,09,16,18.70
2012,08,03,09,17,18.70
2012,08,03,09,18,18.70
2012,08,03,09,19,18.70
2012,08,03,09,20,18.70
2012,08,03,09,21,18.80
2012,08,03,09,22,18.80
2012,08,03,09,23,18.80
2012,08,03,09,24,18.90
2012,08,03,09,25,19.00
2012,08,03,09,26,19.10
2012,08,03,09,27,19.10
2012,08,03,09,28,19.10
2012,08,03,09,29,19.10
2012,08,03,09,30,19.00
2012,08,03,09,31,18.90
2012,08,03,09,32,18.80
2012,08,03,09,33,18.70
2012,08,03,09,34,18.70
2012,08,03,09,35,18.70
2012,08,03,09,36,18.70
2012,08,03,09,37,18.70
2012,08,03,09,38,18.70
2012,08,03,09,39,18.70
2012,08,03,09,40,18.70
2012,08,03,09,41,18.60
2012,08,03,09,42,18.60
2012,08,03,09,43,18.70
2012,08,03,09,44,18.70
2012,08,03,09,45,18.80
2012,08,03,09,46,18.80
2012,08,03,09,47,18.80
2012,08,03,09,48,18.80
2012,08,03,09,49,18.80
2012,08,03,09,50,18.80
2012,08,03,09,51,18.80
2012,08,03,09,52,18.70
2012,08,03,09,53,18.70
2012,08,03,09,54,18.70
2012,08,03,09,55,18.70
2012,08,03,09,56,18.70
2012,08,03,09,57,18.70
2012,08,03,09,58,18.70
2012,08,03,09,59,18.80
2012,08,03,10,00,18.80
2012,08,03,10,01,18.80
2012,08,03,10,02,18.80
2012,08,03,10,03,18.80
2012,08,03,10,04,18.80
2012,08,03,10,05,18.90
2012,08,03,10,06,18.90
2012,08,03,10,07,19.00
2012,08,03,10,08,19.10
2012,08,03,10,09,19.10
2012,08,03,10,10,19.20
2012,08,03,10,11,19.20
2012,08,03,10,12,19.20
2012,08,03,10,13,19.30
2012,08,03,10,14,19.30
2012,08,03,10,15,19.30
2012,08,03,10,16,19.30
2012,08,03,10,17,19.40
2012,08,03,10,18,19.40
2012,08,03,10,19,19.40
2012,08,03,10,20,19.50
2012,08,03,10,21,19.50
2012,08,03,10,22,19.60
2012,08,03,10,23,19.60
2012,08,03,10,24,19.60
2012,08,03,10,25,19.60
2012,08,03,10,26,19.60
2012,08,03,10,27,19.60
2012,08,03,10,28,19.70
2012,08,03,10,29,19.60
2012,08,03,10,30,19.60
2012,08,03,10,31,19.60
2012,08,03,10,32,19.60
2012,08,03,10,33,19.60
2012,08,03,10,34,19.60
2012,08,03,10,35,19.60
2012,08,03,10,36,19.60
2012,08,03,10,37,19.60
2012,08,03,10,38,19.50
2012,08,03,10,39,19.50
2012,08,03,10,40,19.60
2012,08,03,10,41,19.60
2012,08,03,10,42,19.70
2012,08,03,10,43,19.70
2012,08,03,10,44,19.70
2012,08,03,10,45,19.80
2012,08,03,10,46,19.80
2012,08,03,10,47,19.80
2012,08,03,10,48,19.90
2012,08,03,10,49,19.90
2012,08,03,10,50,19.90
2012,08,03,10,51,20.00
2012,08,03,10,52,20.00
2012,08,03,10,53,20.00
2012,08,03,10,54,20.00
2012,08,03,10,55,20.00
2012,08,03,10,56,20.00
2012,08,03,10,57,20.00
2012,08,03,10,58,20.10
2012,08,03,10,59,20.10
2012,08,03,11,00,20.10
2012,08,03,11,01,20.10
2012,08,03,11,02,20.10
2012,08,03,11,03,20.10
2012,08,03,11,04,20.10
2012,08,03,11,05,20.10
2012,08,03,11,06,20.10
2012,08,03,11,07,20.20
2012,08,03,11,08,20.20
2012,08,03,11,09,20.30
2012,08,03,11,10,20.30
2012,08,03,11,11,20.40
2012,08,03,11,12,20.50
2012,08,03,11,13,20.50
2012,08,03,11,14,20.60
2012,08,03,11,15,20.60
2012,08,03,11,16,20.60
2012,08,03,11,17,20.70
2012,08,03,11,18,20.80
2012,08,03,11,19,20.90
2012,08,03,11,20,20.90
2012,08,03,11,21,21.00
2012,08,03,11,22,21.10
2012,08,03,11,23,21.10
2012,08,03,11,24,21.10
2012,08,03,11,25,21.10
2012,08,03,11,26,21.00
2012,08,03,11,27,20.90
2012,08,03,11,28,20.90
2012,08,03,11,29,20.80
2012,08,03,11,30,20.70
2012,08,03,11,31,20.60
2012,08,03,11,32,20.60
2012,08,03,11,33,20.50
2012,08,03,11,34,20.50
2012,08,03,11,35,20.40
2012,08,03,11,36,20.30
2012,08,03,11,37,20.30
2012,08,03,11,38,20.30
2012,08,03,11,39,20.30
2012,08,03,11,40,20.40
2012,08,03,11,41,20.40
2012,08,03,11,42,20.40
2012,08,03,11,43,20.40
2012,08,03,11,44,20.40
2012,08,03,11,45,20.40
2012,08,03,11,46,20.40
2012,08,03,11,47,20.40
2012,08,03,11,48,20.30
2012,08,03,11,49,20.30
2012,08,03,11,50,20.30
2012,08,03,11,51,20.40
2012,08,03,11,52,20.50
2012,08,03,11,53,20.60
2012,08,03,11,54,20.70
2012,08,03,11,55,20.70
2012,08,03,11,56,20.70
2012,08,03,11,57,20.70
2012,08,03,11,58,20.70
2012,08,03,11,59,20.80
2012,08,03,12,00,20.80
2012,08,03,12,01,20.90
2012,08,03,12,02,20.90
2012,08,03,12,03,21.00
2012,08,03,12,04,21.00
2012,08,03,12,05,21.00
2012,08,03,12,06,21.00
2012,08,03,12,07,21.00
2012,08,03,12,08,21.00
2012,08,03,12,09,21.00
2012,08,03,12,10,20.90
2012,08,03,12,11,20.90
2012,08,03,12,12,21.00
2012,08,03,12,13,21.10
2012,08,03,12,14,21.10
2012,08,03,12,15,21.10
2012,08,03,12,16,21.20
2012,08,03,12,17,21.20
2012,08,03,12,18,21.20
2012,08,03,12,19,21.20
2012,08,03,12,20,21.20
2012,08,03,12,21,21.30
2012,08,03,12,22,21.30
2012,08,03,12,23,21.40
2012,08,03,12,24,21.40
2012,08,03,12,25,21.40
2012,08,03,12,26,21.40
2012,08,03,12,27,21.50
2012,08,03,12,28,21.50
2012,08,03,12,29,21.60
2012,08,03,12,30,21.70
2012,08,03,12,31,21.70
2012,08,03,12,32,21.70
2012,08,03,12,33,21.70
2012,08,03,12,34,21.70
2012,08,03,12,35,21.80
2012,08,03,12,36,21.80
2012,08,03,12,37,21.80
2012,08,03,12,38,21.80
2012,08,03,12,39,21.80
2012,08,03,12,40,21.90
2012,08,03,12,41,21.90
2012,08,03,12,42,22.00
2012,08,03,12,43,22.00
2012,08,03,12,44,22.10
2012,08,03,12,45,22.10
2012,08,03,12,46,22.20
2012,08,03,12,47,22.20
2012,08,03,12,48,22.30
2012,08,03,12,49,22.30
2012,08,03,12,50,22.40
2012,08,03,12,51,22.40
2012,08,03,12,52,22.40
2012,08,03,12,53,22.40
2012,08,03,12,54,22.40
2012,08,03,12,55,22.30
2012,08,03,12,56,22.30
2012,08,03,12,57,22.20
2012,08,03,12,58,22.20
2012,08,03,12,59,22.20
2012,08,03,13,00,22.20
2012,08,03,13,01,22.20
2012,08,03,13,02,22.20
2012,08,03,13,03,22.20
2012,08,03,13,04,22.20
2012,08,03,13,05,22.20
2012,08,03,13,06,22.20
2012,08,03,13,07,22.20
2012,08,03,13,08,22.20
2012,08,03,13,09,22.10
2012,08,03,13,10,22.20
2012,08,03,13,11,22.20
2012,08,03,13,12,22.20
2012,08,03,13,13,22.20
2012,08,03,13,14,22.30
2012,08,03,13,15,22.30
2012,08,03,13,16,22.30
2012,08,03,13,17,22.30
2012,08,03,13,18,22.30
2012,08,03,13,19,22.20
2012,08,03,13,20,22.20
2012,08,03,13,21,22.20
2012,08,03,13,22,22.30
2012,08,03,13,23,22.30
2012,08,03,13,24,22.30
2012,08,03,13,25,22.30
2012,08,03,13,26,22.40
2012,08,03,13,27,22.30
2012,08,03,13,28,22.20
2012,08,03,13,29,22.20
2012,08,03,13,30,22.20
2012,08,03,13,31,22.20
2012,08,03,13,32,22.30
2012,08,03,13,33,22.40
2012,08,03,13,34,22.50
2012,08,03,13,35,22.60
2012,08,03,13,36,22.70
2012,08,03,13,37,22.70
2012,08,03,13,38,22.70
2012,08,03,13,39,22.70
2012,08,03,13,40,22.80
2012,08,03,13,41,22.80
2012,08,03,13,42,22.80
2012,08,03,13,43,22.90
2012,08,03,13,44,23.00
2012,08,03,13,45,23.00
2012,08,03,13,46,23.10
2012,08,03,13,47,23.10
2012,08,03,13,48,23.20
2012,08,03,13,49,23.20
2012,08,03,13,50,23.30
2012,08,03,13,51,23.30
2012,08,03,13,52,23.30
2012,08,03,13,53,23.30
2012,08,03,13,54,23.30
2012,08,03,13,55,23.30
2012,08,03,13,56,23.30
2012,08,03,13,57,23.30
2012,08,03,13,58,23.30
2012,08,03,13,59,23.40
2012,08,03,14,00,23.40
2012,08,03,14,01,23.40
2012,08,03,14,02,23.40
2012,08,03,14,03,23.50
2012,08,03,14,04,23.50
2012,08,03,14,05,23.60
2012,08,03,14,06,23.70
2012,08,03,14,07,23.80
2012,08,03,14,08,23.80
2012,08,03,14,09,23.80
2012,08,03,14,10,23.70
2012,08,03,14,11,23.70
2012,08,03,14,12,23.70
2012,08,03,14,13,23.70
2012,08,03,14,14,23.70
2012,08,03,14,15,23.70
2012,08,03,14,16,23.80
2012,08,03,14,17,23.70
2012,08,03,14,18,23.80
2012,08,03,14,19,23.80
2012,08,03,14,20,23.80
2012,08,03,14,21,23.80
2012,08,03,14,22,23.80
2012,08,03,14,23,23.80
2012,08,03,14,24,23.80
2012,08,03,14,25,23.90
2012,08,03,14,26,23.90
2012,08,03,14,27,23.90
2012,08,03,14,28,23.80
2012,08,03,14,29,23.80
2012,08,03,14,30,23.90
2012,08,03,14,31,24.00
2012,08,03,14,32,24.10
2012,08,03,14,33,24.10
2012,08,03,14,34,24.20
2012,08,03,14,35,24.20
2012,08,03,14,36,24.20
2012,08,03,14,37,24.30
2012,08,03,14,38,24.30
2012,08,03,14,39,24.40
2012,08,03,14,40,24.30
2012,08,03,14,41,24.30
2012,08,03,14,42,24.30
2012,08,03,14,43,24.40
2012,08,03,14,44,24.40
2012,08,03,14,45,24.30
2012,08,03,14,46,24.30
2012,08,03,14,47,24.30
2012,08,03,14,48,24.30
2012,08,03,14,49,24.30
2012,08,03,14,50,24.30
2012,08,03,14,51,24.30
2012,08,03,14,52,24.30
2012,08,03,14,53,24.30
2012,08,03,14,54,24.40
2012,08,03,14,55,24.50
2012,08,03,14,56,24.50
2012,08,03,14,57,24.50
2012,08,03,14,58,24.50
2012,08,03,14,59,24.60
2012,08,03,15,00,24.60
2012,08,03,15,01,24.70
2012,08,03,15,02,24.80
2012,08,03,15,03,24.70
2012,08,03,15,04,24.70
2012,08,03,15,05,24.70
2012,08,03,15,06,24.70
2012,08,03,15,07,24.80
2012,08,03,15,08,24.80
2012,08,03,15,09,24.80
2012,08,03,15,10,24.80
2012,08,03,15,11,24.80
2012,08,03,15,12,24.80
2012,08,03,15,13,24.80
2012,08,03,15,14,24.80
2012,08,03,15,15,24.80
2012,08,03,15,16,24.80
2012,08,03,15,17,24.80
2012,08,03,15,18,24.80
2012,08,03,15,19,24.80
2012,08,03,15,20,24.80
2012,08,03,15,21,24.90
2012,08,03,15,22,24.80
2012,08,03,15,23,24.80
2012,08,03,15,24,24.80
2012,08,03,15,25,24.70
2012,08,03,15,26,24.80
2012,08,03,15,27,24.80
2012,08,03,15,28,24.90
2012,08,03,15,29,24.90
2012,08,03,15,30,24.90
2012,08,03,15,31,25.00
2012,08,03,15,32,25.10
2012,08,03,15,33,25.20
2012,08,03,15,34,25.20
2012,08,03,15,35,25.30
2012,08,03,15,36,25.30
2012,08,03,15,37,25.40
2012,08,03,15,38,25.40
2012,08,03,15,39,25.40
2012,08,03,15,40,25.40
2012,08,03,15,41,25.50
2012,08,03,15,42,25.50
2012,08,03,15,43,25.60
2012,08,03,15,44,25.70
2012,08,03,15,45,25.70
2012,08,03,15,46,25.70
2012,08,03,15,47,25.70
2012,08,03,15,48,25.70
2012,08,03,15,49,25.70
2012,08,03,15,50,25.70
2012,08,03,15,51,25.60
2012,08,03,15,52,25.70
2012,08,03,15,53,25.60
2012,08,03,15,54,25.60
2012,08,03,15,55,25.60
2012,08,03,15,56,25.60
2012,08,03,15,57,25.70
2012,08,03,15,58,25.80
2012,08,03,15,59,25.80
2012,08,03,16,00,25.80
2012,08,03,16,01,25.80
2012,08,03,16,02,25.80
2012,08,03,16,03,25.80
2012,08,03,16,04,25.70
2012,08,03,16,05,25.70
2012,08,03,16,06,25.70
2012,08,03,16,07,25.60
2012,08,03,16,08,25.60
2012,08,03,16,09,25.60
2012,08,03,16,10,25.60
2012,08,03,16,11,25.60
2012,08,03,16,12,25.60
2012,08,03,16,13,25.70
2012,08,03,16,14,25.70
2012,08,03,16,15,25.70
2012,08,03,16,16,25.70
2012,08,03,16,17,25.70
2012,08,03,16,18,25.80
2012,08,03,16,19,25.80
2012,08,03,16,20,25.90
2012,08,03,16,21,26.00
2012,08,03,16,22,26.00
2012,08,03,16,23,26.00
2012,08,03,16,24,26.00
2012,08,03,16,25,26.10
2012,08,03,16,26,26.20
2012,08,03,16,27,26.10
2012,08,03,16,28,26.00
2012,08,03,16,29,25.90
2012,08,03,16,30,25.80
2012,08,03,16,31,25.80
2012,08,03,16,32,25.80
2012,08,03,16,33,25.80
2012,08,03,16,34,25.90
2012,08,03,16,35,25.80
2012,08,03,16,36,25.70
2012,08,03,16,37,25.70
2012,08,03,16,38,25.70
2012,08,03,16,39,25.80
2012,08,03,16,40,25.90
2012,08,03,16,41,25.90
2012,08,03,16,42,26.00
2012,08,03,16,43,26.00
2012,08,03,16,44,26.00
2012,08,03,16,45,26.10
2012,08,03,16,46,26.10
2012,08,03,16,47,26.10
2012,08,03,16,48,26.10
2012,08,03,16,49,26.10
2012,08,03,16,50,26.10
2012,08,03,16,51,26.00
2012,08,03,16,52,25.90
2012,08,03,16,53,25.90
2012,08,03,16,54,25.80
2012,08,03,16,55,25.70
2012,08,03,16,56,25.70
2012,08,03,16,57,25.70
2012,08,03,16,58,25.70
2012,08,03,16,59,25.70
2012,08,03,17,00,25.70
2012,08,03,17,01,25.70
2012,08,03,17,02,25.70
2012,08,03,17,03,25.70
2012,08,03,17,04,25.80
2012,08,03,17,05,25.80
2012,08,03,17,06,25.80
2012,08,03,17,07,25.90
2012,08,03,17,08,25.90
2012,08,03,17,09,25.90
2012,08,03,17,10,25.80
2012,08,03,17,11,25.80
2012,08,03,17,12,25.90
2012,08,03,17,13,25.90
2012,08,03,17,14,25.80
2012,08,03,17,15,25.80
2012,08,03,17,16,25.80
2012,08,03,17,17,25.80
2012,08,03,17,18,25.70
2012,08,03,17,19,25.70